Location: *
(37.5724°S, 58.0067°E)
Time: 10:33:43
(UTC+00:00)

CZ-3A R/B - Pass Details

Date: 17 January 2021
Orbit: 1317 x 30229 km, 55.5° (Epoch: 26 February)

Event Time Altitude Azimuth Distance (km) Brightness Sun altitude
Exits shadow 23:56:32 - 290° (WNW) 16,278 8.6 -12.3°
Reaches altitude 10° 00:14:06 10° 281° (W) 11,474 7.9 -9.5°
Maximum altitude 00:40:05 39° 212° (SSW) 3,174 5.7 -5.2°
Drops below altitude 10° 00:47:42 10° 140° (SE) 3,619 7.4 -3.9°
Sets 00:50:04 0° 130° (SE) 4,396 8.7 -3.5°
